Regional Weather Roundup
Issued by NWS Grand Forks, ND

Home | Current Version | Previous Version | Text Only | Print | Product List | Glossary On
Versions: 1 2 3 4 5 6 7 8 9 10 11 12 13 14 15 16 17 18 19 20 21 22 23 24 25 26 27 28 29 30 31 32 33 34 35 36 37 38 39 40 41 42 43 44 45 46 47 48 49 50
000
ASUS43 KFGF 260910
RWRFGF
PRAIRIE TO PINES  WEATHER ROUNDUP
NATIONAL WEATHER SERVICE EASTERN NORTH DAKOTA/GRAND FORKS ND
400 AM CDT MON JUN 26 2017

 **SATELLITE DATA USED TO AUGMENT SKY COVER AT AUTOMATED STATIONS**
 *****  WEATHER ACROSS EASTERN NORTH DAKOTA  *****

CITY           SKY/WX    TMP DP  RH WIND       PRES   REMARKS
GRAND FORKS    FAIR      44  42  93 W7        30.19F
GRAND FRKS AFB FAIR      43  40  91 W6        30.20F
DEVILS LAKE    FAIR      43  40  89 W5        30.23F
FARGO          FAIR      42  38  85 CALM      30.21S
WAHPETON ARPT  FAIR      41  36  81 NW5       30.21S
$$

 ***** WEATHER ACROSS CENTRAL AND WESTERN NORTH DAKOTA  *****

CITY           SKY/WX    TMP DP  RH WIND       PRES   REMARKS
BISMARCK       FAIR      44  42  93 E3        30.25F
MINOT          FAIR      46  40  79 CALM      30.24S
JAMESTOWN      FAIR      43  40  89 CALM      30.23S
MINOT AFB      FAIR      39  36  89 W5        30.23S
GARRISON         N/A     41  38  89 CALM      30.24S
WILLISTON      FAIR      47  42  83 CALM      30.24F
DICKINSON      FAIR      45  40  82 SE9       30.23S
HETTINGER      FAIR      40  35  83 SE5       30.25F
$$

 *****  OTHER AIRPORT OBSERVATIONS IN OUR AREA  *****

CITY           SKY/WX    TMP DP  RH WIND       PRES   REMARKS
WALHALLA       NOT AVBL
GRAFTON AIRPOR FAIR      48  43  81 W6        30.21F
VALLEY CITY AR FAIR      43  43 100 NW6       30.24S
CANDO          NOT AVBL
CAVALIER APRT  FAIR      46  41  81 W6        30.19F
GWINNER        CLOUDY    43  41  93 CALM      30.22S
SHEYENNE NWR     N/A     45  41  85 N5        29.95S
ROLLA            N/A     39  39 100 CALM      30.24S
 ***** THE ABOVE OBSERVATIONS ARE NON NWS ARE NOT QUALITY
       CONTROLLED AND MAY MIS-REPORT RAIN FOR SNOW...
$$

  *****  WEATHER ACROSS NORTHERN MINNESOTA  *****

CITY           SKY/WX    TMP DP  RH WIND       PRES   REMARKS
FLAG ISLAND    FAIR      48  45  87 W12       30.12S
WARROAD        FAIR      46  43  87 W6        30.15F
ROSEAU         FAIR      46  43  87 W8        30.16S
HALLOCK        FAIR      43  39  87 CALM      30.19S
THF RVR FALLS  FAIR      45  42  89 NW7       30.20S
BAUDETTE       NOT AVBL
WASKISH        FAIR      50  46  87 NW9       30.15S
CROOKSTON      FAIR      43  39  87 CALM      30.20F
STEPHEN NDAWN    N/A     45  41  87 W2          N/A
GREENBUSH NDAW   N/A     43  43 100 W3          N/A
$$
  *****  WEATHER ACROSS CENTRAL AND WEST MINNESOTA  *****

CITY           SKY/WX    TMP DP  RH WIND       PRES   REMARKS
FOSSTON        FAIR      37  36  93 CALM      30.20R
BEMIDJI        FAIR      41  40  95 NW5       30.17R
PARK RAPIDS    NOT AVBL
ELBOW LAKE     FAIR      45  43  93 NW3       30.21R
WADENA         FAIR      41  39  93 CALM      30.18S
DETROIT LAKES  FAIR      45  41  87 CALM      30.21R
MOORHEAD       FAIR      45  39  81 CALM      30.22S
FERGUS FALLS   FAIR      46  41  81 CALM      30.20R
MORRIS MN      FAIR      46  45  93 W5        30.19S
STAPLES        FAIR      43  41  93 NW5       30.18S
$$
  *****  WEATHER ELSEWHERE ACROSS MINNESOTA  *****

CITY           SKY/WX    TMP DP  RH WIND       PRES   REMARKS
DULUTH         CLOUDY    45  45 100 NW7       30.09S
INTRNTL FALLS  FAIR      42  40  92 W3        30.11S
ELY            FAIR      45  45 100 CALM      30.08S
CLOQUET        FAIR      41  39  93 W3        30.11S
WHEATON        FAIR      46  43  87 CALM      30.23S
BRAINERD       NOT AVBL
HIBBING        FAIR      37  37 100 CALM      30.11S FOG
ALEXANDRIA     FAIR      48  44  86 N6        30.20S
SAINT CLOUD    FAIR      45  42  89 NW5       30.16S
MINNEAPOLIS    FAIR      53  44  71 NW6       30.15R
$$

  *****  WEATHER ACROSS SOUTH DAKOTA  *****

CITY           SKY/WX    TMP DP  RH WIND       PRES   REMARKS
SIOUX FALLS    FAIR      53  52  96 N5        30.18F
BROOKINGS      FAIR      47  46  97 CALM      30.21S
WATERTOWN      FAIR      45  43  93 N5        30.21S
HURON          FAIR      47  46  97 CALM      30.21S
SISSETON         N/A     47  42  83 CALM      30.21S
ABERDEEN       FAIR      42  41  96 CALM      30.23S
MITCHELL       FAIR      53  50  89 NW5       30.20S
PIERRE         FAIR      47  43  86 NE5       30.21S
MOBRIDGE       FAIR      49  42  77 E8        30.22S
RAPID CITY     FAIR      52  37  56 W3        30.26F
$$

  *****  SOME WEATHER IN NEARBY STATES *****

CITY           SKY/WX    TMP DP  RH WIND       PRES   REMARKS
GLASGOW MT     FAIR      55  40  56 E13       30.17S
GREAT FALLS MT FAIR      60  41  49 SE6       30.08F
CHEYENNE WY    FAIR      54  52  93 W8        30.32F
SCOTTSBLUFF NE FAIR      56  51  84 N7        30.23S
OMAHA NE       LGT RAIN  60  51  72 S3        30.18R
DES MOINES IA  FAIR      59  50  72 CALM      30.20R
DAVENPORT IA   FAIR      49  46  90 W3        30.15R
CHICAGO IL     FAIR      54  49  83 W6        30.09S
EAU CLAIRE WI  FAIR      45  44  97 W5        30.10R
LA CROSSE WI   FAIR      53  48  83 SE3       30.11R
$$

  *****  SOME NATIONAL WEATHER *****

CITY           SKY/WX    TMP DP  RH WIND       PRES   REMARKS
LA GUARDIA NY  NOT AVBL
RALEIGH NC     FAIR      65  58  78 CALM      30.10S
ATLANTA GA     FAIR      66  56  70 N10       30.14S
NEW ORLEANS LA FAIR      77  69  76 E6        30.09F
OKLAHOMA CITY  MOCLDY    67  56  67 SE6       30.18F
ALBUQUERQUE NM MOCLDY    67  53  61 E13       30.28S
SALT LAKE CITY NOT AVBL
LOS ANGELES CA FAIR      66  60  81 CALM      29.88F
BOISE ID       FAIR      73  44  35 E9        29.96S
SEATTLE WA     MOCLDY    60  55  83 S12       29.92S
$$

*** WEATHER ACROSS MANITOBA...SASKATCHEWAN AND ONTARIO ***
                ***ONTARIO***

CITY           SKY/WX    TMP DP  RH WIND       PRES   REMARKS
GERALDTON      MOCLDY    41  37  87 W5        29.99S
THUNDER BAY    CLOUDY    50  48  93 SW6       30.01S
SIOUX LOOKOUT  PTCLDY    46  45  93 NW6       30.05S
TORONTO        MOCLDY    57  52  82 W5        29.95S
BIG TROUT LK   CLEAR     45  39  81 NW8       29.97S
PICKLE LAKE    NOT AVBL
DRYDEN         CLEAR     45  43  93 W7        30.08R
KENORA         MOCLDY    50  46  87 NW6       30.11F
$$
                *** MANITOBA***

CITY           SKY/WX    TMP DP  RH WIND       PRES   REMARKS
BRANDON        CLEAR     37  36  93 W6        30.22S
DAUPHIN        CLEAR     48  41  76 W10       30.19S
ISLAND LAKE    NOT AVBL
PILOT MOUND      N/A     43  39  87 W3          N/A
THE PAS        CLEAR     45  43  93 CALM      30.13F
THOMPSON       MOCLDY    48  43  81 SW6       30.04F
WINNIPEG       PTCLDY    45  43  93 W9        30.17F
LYNN LAKE      CLEAR     54  39  58 W8        30.05F
CHURCHILL      CLOUDY    52  48  87 W8        29.86F
GILLAM         CLOUDY    50  43  76 W9        29.98F
$$
                ***SASKATCHEWAN***

CITY           SKY/WX    TMP DP  RH WIND       PRES   REMARKS
ESTEVAN        CLEAR     43  43 100 SE3       30.24F
KINDERSLEY     MOCLDY    54  43  66 SE20G28   30.12F
LLOYDMINSTER   MOCLDY    55  43  62 SE15G21   30.08F
PRINCE ALBERT  PTCLDY    41  37  87 SW3       30.19F
REGINA         CLEAR     45  36  70 E9        30.23F
YORKTON        CLEAR     45  39  81 SW2       30.22F
N. BATTLEFORD  CLEAR     48  41  76 SE9       30.16F
LA RONGE       CLEAR     52  36  54 SW6       30.13F
SASKATOON      CLEAR     50  39  66 S7        30.20F
SWIFT CURRENT  CLEAR     48  39  71 SE13G18   30.17F
$$
NOTE: THESE ARE AUTOMATED STATIONS WITH LIMITED QUALITY CONTROL
      "FAIR" INDICATES FEW OR NO CLOUDS BELOW 12,000 FEET WITH NO
      SIGNIFICANT WEATHER AND/OR OBSTRUCTIONS TO VISIBILITY.
      SKY/WX - SKY CONDITION AND SIGNIFICANT WEATHER.
      TMP - AIR TEMPERATURE.    DP   - DEWPOINT TEMPERATURE.
      RH  - RELATIVE HUMIDITY.  PRES - PRESSURE.
      HX  - HEAT INDEX.         WCI  - WIND CHILL INDEX.
$




USA.gov is the U.S. government's official web portal to all federal, state and local government web resources and services.